Weather History for Casper, WY

Change the Weather History Date:

Friday, April 5, 2013

  Actual Average Record
Temperature  
Mean Temperature 51 °F 40 °F  
Max Temperature 67 °F 54 °F 76 °F (1991)
Min Temperature 35 °F 26 °F 7 °F (1982)
Degree Days  
Heating Degree Days 14 25  
Month to date heating degree days 100 127  
Since 1 July heating degree days 6111 6500  
Cooling Degree Days 0 0  
Month to date cooling degree days 0 0  
Year to date cooling degree days 0 0  
Growing Degree Days 2 (Base 50)    
Moisture  
Dew Point 27 °F    
Average Humidity 50    
Maximum Humidity 76    
Minimum Humidity 23    
Precipitation  
Precipitation 0.00 in 0.03 in 0.44 in (1956)
Month to date precipitation 0.01 0.17  
Year to date precipitation 1.63 2.07  
Snow  
Snow 0.00 in 0.40 in - ()
Month to date snowfall 0.0 2.2  
Since 1 July snowfall 43.2 62.5  
Snow Depth 0.00 in    
Sea Level Pressure  
Sea Level Pressure 29.68 in    
Wind  
Wind Speed 17 mph (WSW)    
Max Wind Speed 37 mph    
Max Gust Speed 47 mph    
Visibility 10 miles    
Events      
T = Trace of Precipitation, MM = Missing Value Source: NWS Daily Summary

Daily Weather History Graph

Daily Weather History Graph

Search for Another Location

Airport:

Trip Planner

Search our weather history database for the weather conditions in past years. The results will help you decide how hot, cold, wet, or windy it might be!

Date:

Astronomy

Apr. 05, 2013 Rise Set
Actual Time 6:40 AM MDT 7:37 PM MDT
Civil Twilight 6:11 AM MDT 8:06 PM MDT
Nautical Twilight 5:37 AM MDT 8:40 PM MDT
Astronomical Twilight 5:01 AM MDT 9:16 PM MDT
Moon 3:56 AM MDT (4/5) 2:58 PM MDT (4/5)
Length of Visible Light 13h 54m
Length of Day
12h 56m
Waning Crescent, 23% of the Moon is Illuminated
Apr 5
Waning Crescent
Apr 10
New
Apr 18
First Quarter
Apr 25
Full
May 2
Last Quarter

Hourly Weather History & Observations

Time (MDT) Temp. Windchill Dew Point Humidity Pressure Visibility Wind Dir Wind Speed Gust Speed Precip Events Conditions
12:53 AM 53.1 °F - 26.1 °F 35% 29.75 in 10.0 mi SW 10.4 mph - N/A   Clear
1:53 AM 51.1 °F - 27.0 °F 39% 29.73 in 10.0 mi SW 11.5 mph - N/A   Partly Cloudy
2:53 AM 50.0 °F - 27.0 °F 41% 29.73 in 10.0 mi SW 13.8 mph - N/A   Clear
3:53 AM 48.9 °F - 26.1 °F 41% 29.72 in 10.0 mi WSW 9.2 mph - N/A   Clear
4:53 AM 48.9 °F - 26.1 °F 41% 29.70 in 10.0 mi SW 9.2 mph - N/A   Clear
5:53 AM 48.0 °F - 26.1 °F 42% 29.69 in 10.0 mi SW 8.1 mph - N/A   Clear
6:53 AM 46.9 °F - 25.0 °F 42% 29.70 in 10.0 mi SW 6.9 mph - N/A   Clear
7:53 AM 53.1 °F - 26.1 °F 35% 29.69 in 10.0 mi SSW 21.9 mph 25.3 mph N/A   Clear
8:53 AM 55.0 °F - 26.1 °F 33% 29.70 in 10.0 mi SSW 9.2 mph - N/A   Clear
9:53 AM 57.9 °F - 25.0 °F 28% 29.68 in 10.0 mi SW 20.7 mph 27.6 mph N/A   Clear
10:53 AM 62.1 °F - 25.0 °F 24% 29.65 in 10.0 mi SW 21.9 mph 28.8 mph N/A   Clear
11:53 AM 64.9 °F - 27.0 °F 24% 29.61 in 10.0 mi WSW 21.9 mph 29.9 mph N/A   Clear
12:53 PM 64.0 °F - 27.0 °F 25% 29.58 in 10.0 mi WSW 33.4 mph 42.6 mph N/A   Mostly Cloudy
1:53 PM 64.0 °F - 28.0 °F 26% 29.57 in 10.0 mi West 29.9 mph 38.0 mph N/A   Mostly Cloudy
2:53 PM 61.0 °F - 27.0 °F 27% 29.58 in 10.0 mi West 21.9 mph 32.2 mph N/A   Scattered Clouds
3:53 PM 64.0 °F - 26.1 °F 24% 29.56 in 10.0 mi West 21.9 mph 31.1 mph N/A   Clear
4:53 PM 61.0 °F - 24.1 °F 24% 29.57 in 10.0 mi WSW 32.2 mph 38.0 mph N/A   Overcast
5:53 PM 61.0 °F - 26.1 °F 26% 29.60 in 10.0 mi WSW 28.8 mph 39.1 mph 0.00 in   Partly Cloudy
6:53 PM 55.9 °F - 19.0 °F 24% 29.64 in 10.0 mi West 19.6 mph 27.6 mph N/A   Overcast
7:49 PM 50.0 °F - 30.2 °F 47% 29.78 in 10.0 mi NNW 21.9 mph 32.2 mph N/A   Mostly Cloudy
7:53 PM 48.9 °F - 30.9 °F 50% 29.69 in 10.0 mi NNW 23.0 mph 32.2 mph N/A   Scattered Clouds
8:53 PM 42.1 °F 36.1 °F 30.9 °F 65% 29.75 in 10.0 mi WNW 10.4 mph - N/A   Clear
9:53 PM 39.0 °F 33.4 °F 30.0 °F 70% 29.79 in 10.0 mi South 8.1 mph - N/A   Scattered Clouds
10:53 PM 37.9 °F 31.5 °F 30.0 °F 73% 29.80 in 10.0 mi West 9.2 mph - N/A   Partly Cloudy
11:53 PM 37.0 °F 31.6 °F 28.9 °F 73% 29.80 in 10.0 mi SW 6.9 mph - N/A   Clear